Tracking 29892 objects as of 21-Nov-2024
HD Live streaming from Space Station
objects crossing your sky now

STARLINK-4063

Track STARLINK-4063 now!
10-day predictions
STARLINK-4063 is classified as:


NORAD ID: 53132
Int'l Code: 2022-083A
Perigee: 545.8 km
Apogee: 547.9 km
Inclination: 53.2 °
Period: 95.4 minutes
Semi major axis: 6917 km
RCS: Unknown
Launch date: July 17, 2022
Source: United States (US)
Launch site: AIR FORCE EASTERN TEST RANGE (AFETR)
Your satellite tracking list
Your tracking list is empty




NASA's NSSDC Master Catalog

Two Line Element Set (TLE):
1 53132U 22083A   24324.92471570  .00006849  00000-0  44785-3 0  9997
2 53132  53.2145 145.4235 0001458  88.8511 271.2648 15.08849514130176
Source of the keplerian elements: AFSPC